Location: Unspecified
(41.1850°N, 73.2650°W)
Time: 16:46:38
(UTC+00:00)

Cosmos 1953 Rocket - Pass Details

Date: 14 December 2025
Orbit: 599 x 627 km, 82.5° (Epoch: 16 January)

Event Time Altitude Azimuth Distance (km) Brightness Sun altitude
Rises 22:49:30 0° 349° (NNW) 2,918 7.0 -15.3°
Reaches altitude 10° 22:51:45 10° 346° (NNW) 2,009 6.1 -15.7°
Maximum altitude 22:56:10 65° 265° (W) 693 4.0 -16.5°
Drops below altitude 10° 23:00:33 10° 184° (S) 1,994 6.4 -17.3°
Sets 23:02:46 0° 181° (S) 2,895 7.2 -17.7°
